www.pogodaiklimat.ru

Погода и климат >> Архив погоды >> Россия >> Коми >> Усинск


ПОГОДА в Усинске

  • Прогноз погоды в Усинске
  • Монитор погоды в Усинске

АРХИВ ПОГОДЫ в Усинске

Время (UTC), дата Ветер
(напр.,м/с)
 
Видим.   Явления Облачность Т
(С)
Тd
(С)
f
(%)
Тe
(С)
Тes
(С)
Комфортность P
(гПа)
Po
(гПа)
Тmin
(С)
Tmax
(С)
R
(мм)
R24
(мм)
S
(см)
06 12.07 ЮЗ 4 н/о н/о +14.0 +4.5 53 +13 +13 1008.6 999.4 +8.9
09 12.07 ЮЗ 3 н/о н/о +17.0 +4.7 44 +17 +17 1009.8 1000.7
12 12.07 Ю 2 н/о н/о +18.7 +3.9 37 +19 +19 1010.6 1001.5
15 12.07 ЮВ 2 н/о н/о +17.5 +4.6 42 +18 +18 1011.7 1002.6
18 12.07 В 2 н/о н/о +13.9 +7.3 64 +13 +13 1012.3 1003.1 +18.7
21 12.07 В 2 н/о н/о +10.8 +5.1 68 +10 +10 1012.9 1003.6
03 13.07 В 3 н/о н/о +16.1 +7.3 56 +16 +16 1012.8 1003.7 +9.5
09 13.07 В 3 н/о н/о +22.5 +10.6 47 +24 +24 комфорт 1010.8 1001.9
12 13.07 ЮВ 2 н/о н/о +17.7 +13.6 77 +18 +18 1010.2 1001.1
15 13.07 СЗ 2 н/о н/о +15.1 +13.7 91 +15 +15 1008.6 999.5
18 13.07 С 3 н/о н/о +14.2 +13.1 93 +13 +13 1004.9 995.7 +22.6
21 13.07 З 2 н/о н/о +14.3 +13.2 93 +14 +14 1002.9 993.8
00 14.07 З 3 н/о н/о +14.3 +13.2 93 +13 +13 1004.4 995.3
03 14.07 ЮЗ 3 н/о н/о +15.3 +13.6 90 +15 +15 1006.6 997.5 +14.0
06 14.07 З 3 н/о н/о +18.9 +13.5 71 +20 +20 1007.9 998.9 +14.1
09 14.07 З 2 н/о н/о +20.4 +13.2 63 +23 +23 комфорт 1008.8 999.8
12 14.07 СЗ 1 н/о н/о +21.1 +12.6 58 +23 +23 комфорт 1009.3 1000.4
15 14.07 С 2 н/о н/о +19.6 +13.0 66 +22 +22 комфорт 1008.2 999.3
18 14.07 СВ 5 н/о н/о +14.7 +12.9 89 +13 +13 1008.6 999.5 +22.0
21 14.07 С 3 н/о н/о +13.3 +11.8 91 +12 +12 1008.4 999.2
00 15.07 СЗ 3 н/о н/о +12.5 +11.2 92 +11 +11 1009.2 1000.0
03 15.07 С 4 н/о н/о +14.0 +10.9 82 +13 +13 1010.8 1001.6 +12.4
06 15.07 С 3 н/о н/о +15.4 +9.6 68 +15 +15 1012.1 1002.9 +12.4
09 15.07 СЗ 3 н/о н/о +17.9 +8.7 55 +18 +18 1012.9 1003.8
12 15.07 С 4 н/о н/о +19.0 +9.4 54 +20 +20 1012.8 1003.7
15 15.07 СВ 5 н/о н/о +17.7 +8.9 56 +17 +17 1012.8 1003.7
18 15.07 СВ 4 н/о н/о +12.7 +8.5 76 +11 +11 1013.0 1003.7 +19.2
21 15.07 С 4 н/о н/о +10.5 +7.6 82 +8 +8 1011.7 1002.4
00 16.07 С 5 н/о н/о +10.7 +8.2 85 +8 +8 1010.5 1001.2
03 16.07 С 6
{10}
н/о н/о +11.2 +9.1 87 +8 +8 1007.4 998.2 +10.3
06 16.07 СВ 5
{11}
н/о н/о +16.3 +11.8 75 +15 +15 1004.9 995.9 +10.3
09 16.07 СВ 6-10
{12}
н/о н/о +21.7 +15.2 67 +25 +25 комфорт 1001.9 993.0
12 16.07 СВ 4
{11}
н/о н/о +24.9 +16.9 61 +29 +29 душно 1000.4 991.7
15 16.07 СВ 3 н/о н/о +24.7 +16.8 61 +28 +28 душно 999.8 991.1
18 16.07 ЮЗ 3 н/о н/о +19.0 +17.6 92 +21 +21 комфорт 1002.7 993.8 +26.2
21 16.07 СВ 4 н/о н/о +17.1 +16.0 93 +17 +17 1003.2 994.2
00 17.07 ЮЗ 6
{10}
н/о н/о +14.7 +13.3 91 +13 +13 1005.3 996.2
03 17.07 З 3 н/о н/о +12.1 +11.2 94 +10 +10 1008.5 999.2 +12.3
06 17.07 З 5
{11}
н/о н/о +11.1 +10.1 94 +8 +8 1009.8 1000.5 +11.2
09 17.07 СЗ 5
{11}
н/о н/о +10.0 +8.7 92 +7 +7 1012.3 1002.9
12 17.07 СЗ 2 н/о н/о +10.9 +9.5 91 +10 +10 1014.3 1005.0
15 17.07 СЗ 4 н/о н/о +11.3 +9.8 90 +9 +9 1015.0 1005.7
18 17.07 СЗ 5-11
{11}
н/о н/о +10.0 +8.4 90 +7 +7 1015.6 1006.3 +11.3
21 17.07 СЗ 4
{14}
н/о н/о +9.2 +7.5 89 +6 +6 1015.9 1006.5
00 18.07 СЗ 3 н/о н/о +9.2 +7.5 89 +7 +7 1015.8 1006.5
03 18.07 СЗ 4 н/о н/о +9.2 +7.1 87 +6 +6 1015.4 1006.0 +9.0
06 18.07 СЗ 5-12
{12}
н/о н/о +8.8 +7.4 91 +5 +5 1014.5 1005.1 +8.4
09 18.07 СЗ 5-10
{12}
н/о н/о +9.1 +7.6 90 +6 +6 1014.0 1004.6
12 18.07 СЗ 5
{12}
н/о н/о +8.8 +7.5 92 +5 +5 1013.6 1004.2
15 18.07 С 4
{12}
н/о н/о +8.5 +7.3 92 +5 +5 1012.7 1003.3
18 18.07 С 3 н/о н/о +8.7 +7.7 93 +6 +6 1011.4 1002.0 +9.4
21 18.07 СЗ 3 н/о н/о +8.2 +7.3 94 +5 +5 1009.9 1000.5

 

Местоположение метеостанции Усинск (Коми, Россия): широта 66.03 долгота 57.37 высота над уровнем моря 79 м.

В архиве по умолчанию представлена погода в Усинске за последнюю неделю. Архивные данные за месяц целиком и за предыдущие месяцы, начиная с января 2011 года, Вы можете получить, выбрав интересующий диапазон дат из раскрывающегося списка и нажав кнопку "Ввод!".


*Определитесь, кто Вы:
робот инопланетянин человек

Внимание! Время в таблицах - всемирное. Для получения местного времени необходимо прибавить поправку, которая равна 3 ч.

Смотрите также архив погоды в соседних городах и на ближайших метеорологических станциях:

Погода в Усть-Усе (Коми, Россия) (21 км)
Погода в Мутном Материке (Коми, Россия) (100 км)
Погода в Печоре (Коми, Россия) (102 км)
Погода в Харуте (Ненецкий АО, Россия) (132 км)
Погода в Хорей-Вере (Ненецкий АО, Россия) (158 км)
Погода в Петруни (Коми, Россия) (159 км)
Погода в Ираеле (Коми, Россия) (191 км)
Погода в Ижме (Коми, Россия) (196 км)
Погода в Усть-Щугоре (Коми, Россия) (196 км)
Погода в Окуневом Носу (Коми, Россия) (217 км)

Пояснения к столбцам:

Ветер - указаны скорость ветра в м/с - средняя за 10 мин, порывы в срок и между сроками (в фигурных скобках) и направление, откуда дует ветер: С - северный, СВ - северо-восточный, В - восточный, ЮВ - юго-восточный, Ю - южный, ЮЗ - юго-западный, З - западный, СЗ - северо-западный.
Видимость - горизонтальная дальность видимости в метрах или километрах. При видимости от 1 до 10 км при отсутствии осадков обычно наблюдается дымка, при ухудшении видимости до 1 км и менее - туман. В сухую погоду видимость может ухудшаться дымом, пылью или мглою.
Явления - указаны атмосферные явления, наблюдавшиеся в срок или в последний час перед сроком; фигурными скобками обозначены явления, наблюдавшиеся между сроками (за 1-3 часа до срока); квадратными скобками обозначены град или гололедные отложения с указанием их диаметра в мм.
Облачность - указаны через наклонную черту общая и нижняя облачность в баллах и высота нижней границы облаков в метрах; квадратными скобками обозначены формы облаков: Ci - перистые, Cs - перисто-слоистые, Cc - перисто-кучевые, Ac - высококучевые, As - высокослоистые, Sc - слоисто-кучевые, Ns - слоисто-дождевые, Cu - кучевые, Cb - кучево-дождевые. Подробнее классификацию облаков см. в Атласе облаков (PDF).
T - Температура воздуха - температура, измеренная на высоте 2 м над землей.
Td - Температура точки росы - температура, при понижении до которой содержащийся в воздухе водяной пар достигнет насыщения.
f - Относительная влажность воздуха - влажноcть воздуха, измеренная на высоте 2 м над землей.
Te - Эффективная температура - температура, которую ощущает одетый по сезону человек в тени. Характеристика душности погоды. При расчете учитывается влияние влажности воздуха и скорости ветра на теплоощущения человека.
Tes - Эффективная температура на солнце - температура, которую ощущает человек, с поправкой на солнечный нагрев. Характеристика знойности погоды. Зависит от высоты солнца над горизонтом, облачности и скорости ветра. Ночью, в пасмурную погоду, а также при ветре 12 м/с и более поправка равна нулю.
P - Атмосферное давление - приведенное к уровню моря атмосферное давление.
Po - Атмосферное давление - измеренное на уровне метеостанции атмосферное давление.
Tmin - Минимальная температура - минимум температуры воздуха на высоте 2 м над землей.
Tmax - Максимальная температура - максимум температуры воздуха на высоте 2 м над землей.
R - Количество осадков - Количество выпавших осадков за период времени, мм. При наведении курсора мыши на число - период времени, за который выпало указанное количество осадков.
R24 - Количество осадков - Количество выпавших осадков за 24 часа, мм.
S - Снежный покров - Высота снежного покрова, см. При наведении курсора мыши на число - состояние снежного покрова и степень покрытия местности в баллах.